Flag for Spain Weather past 2 weeks in Valencia, Spain

Now
77 °F

Passing clouds.


Feels Like: 78 °F
Forecast: 56 / 78 °F
Wind: 7 mph from Southeast

Location: Valencia / Aeropuerto

Current Time: May 25, 2015 at 4:26:12 PM

Latest Report: May 25, 2015 at 4:00 PM


Visibility: N/A

Pressure: 30.01 "Hg

Humidity: 32%

Dew point: 45 °F

Location of ValenciaLocation

Historic Weather in Valencia — Graph

°F

Valencia temperature yesterday

Maximum temperature yesterday: 75 °F (at 2:00 PM)
Minimum temperature yesterday: 55 °F (at 6:30 AM)
Average temperature yesterday: 66 °F

Past Weeks' High & Low Weather Summary

 TemperatureHumidityPressure
High109 °F (May 14, 5:30 PM)94% (May 19, 11:00 PM)30.24 "Hg (May 19, 11:00 PM)
Low54 °F (May 20, 7:00 AM)7% (May 14, 5:30 PM)29.71 "Hg (May 14, 6:00 PM)
Average69 °F53%30.08 "Hg
* Reported May 10 3:00 PM — May 25 3:30 PM, Valencia, Weather by CustomWeather, © 2015

Note: Actual official high and low records may vary slightly from our data, if they occured in-between our weather recording intervals... More about our weather records

Advertising

Valencia weather history for previous 24 hours

 ConditionsComfort  
Time TempWeatherWind HumidityBarometerVisibility
3:30 PM
Mon, May 25
77 °FPassing clouds.8 mph30%30.01 "HgN/A
3:00 PM77 °FPassing clouds.9 mph34%30.01 "HgN/A
2:30 PM79 °FPassing clouds.9 mph30%30.01 "HgN/A
2:00 PM79 °FPassing clouds.9 mph30%30.04 "HgN/A
1:30 PM79 °FPassing clouds.9 mph30%30.04 "HgN/A
1:00 PM79 °FPassing clouds.8 mph28%30.04 "HgN/A
12:00 PM77 °FPassing clouds.5 mph34%30.04 "HgN/A
11:30 AM75 °FPassing clouds.5 mph39%30.04 "HgN/A
11:00 AM73 °FPassing clouds.6 mph41%30.04 "HgN/A
10:30 AM73 °FPassing clouds.3 mph41%30.04 "HgN/A
10:00 AM72 °FSunny.No wind44%30.04 "Hg10 mi
9:30 AM70 °FSunny.No wind46%30.04 "Hg10 mi
9:00 AM66 °FSunny.1 mph56%30.04 "Hg10 mi
8:30 AM64 °FSunny.No wind60%30.04 "Hg10 mi
8:00 AM63 °FSunny.2 mph64%30.04 "Hg10 mi
7:30 AM59 °FClear.2 mph77%30.04 "Hg10 mi
7:00 AM57 °FClear.3 mph82%30.04 "Hg10 mi
6:30 AM59 °FPassing clouds.3 mph77%30.01 "HgN/A
6:00 AM61 °FClear.5 mph72%30.01 "Hg10 mi
5:30 AM61 °FClear.2 mph72%30.01 "Hg10 mi
5:00 AM63 °FClear.2 mph73%30.01 "Hg10 mi
4:30 AM63 °FClear.2 mph83%30.04 "Hg10 mi
4:00 AM63 °FClear.1 mph83%30.04 "Hg10 mi
3:30 AM64 °FClear.2 mph78%30.04 "Hg10 mi
3:00 AM63 °FClear.1 mph83%30.04 "Hg10 mi
2:30 AM64 °FClear.No wind73%30.04 "Hg10 mi
2:00 AM64 °FClear.No wind73%30.04 "Hg10 mi
1:30 AM66 °FClear.1 mph68%30.04 "Hg10 mi
1:00 AM66 °FClear.1 mph68%30.04 "Hg10 mi
12:30 AM66 °FClear.1 mph68%30.04 "Hg10 mi
12:00 AM66 °FClear.No wind68%30.04 "Hg10 mi
11:30 PM
Sun, May 24
66 °FClear.No wind68%30.04 "Hg10 mi
11:00 PM66 °FClear.1 mph64%30.04 "Hg10 mi
10:30 PM66 °FClear.1 mph64%30.04 "Hg10 mi
10:00 PM66 °FSunny.2 mph68%30.04 "Hg10 mi
9:30 PM66 °FPassing clouds.5 mph68%30.04 "HgN/A
9:00 PM68 °FPassing clouds.3 mph64%30.01 "HgN/A
8:30 PM70 °FPassing clouds.6 mph53%30.01 "HgN/A
8:00 PM70 °FPassing clouds.7 mph50%30.01 "HgN/A
7:30 PM70 °FPassing clouds.9 mph50%30.01 "HgN/A
7:00 PM70 °FPassing clouds.9 mph46%30.01 "HgN/A
6:30 PM72 °FPassing clouds.12 mph44%30.01 "HgN/A
6:00 PM72 °FPassing clouds.12 mph38%30.01 "HgN/A
5:30 PM72 °FPassing clouds.13 mph36%30.01 "HgN/A
5:00 PM72 °FPassing clouds.10 mph36%30.01 "HgN/A
4:30 PM73 °FPassing clouds.13 mph31%30.01 "HgN/A
4:00 PM73 °FPassing clouds.12 mph36%30.01 "HgN/A
Weather by CustomWeather, © 2015

See weather overviewHow to use our weather pages